GW6799 Weather Reports


Display with metric or nautical units.
time (UTC)temp
F
wind
direction
speed
MPH
gust
MPH
rain 1hr
in
rain 24hr
in
rain mn
in
humidity
%
barometer
mb
20260509075510 68 65 4.0 8.0 0.00 0.15 0.00 89 1010.3
20260509075002 68 94 3.0 6.0 0.00 0.15 0.00 89 1010.4
20260509074524 68 77 3.0 5.0 0.00 0.15 0.00 89 1010.6
20260509074008 68 71 2.0 5.0 0.00 0.15 0.00 89 1010.6
20260509073503 68 106 1.0 6.0 0.00 0.15 0.00 89 1010.4
20260509073026 68 78 2.0 6.0 0.00 0.15 0.00 88 1010.7
20260509072511 68 49 2.0 6.0 0.00 0.15 0.00 88 1010.9
20260509072008 68 77 3.0 6.0 0.00 0.15 0.00 88 1010.9
20260509071524 68 84 2.0 5.0 0.00 0.15 0.00 88 1011.1
20260509071008 68 86 3.0 4.0 0.00 0.15 0.00 88 1011.1
20260509070504 68 71 2.0 4.0 0.00 0.15 0.00 88 1011.1
20260509070026 68 65 2.0 4.0 0.00 0.15 0.00 88 1011.3
20260509065507 68 68 1.0 4.0 0.00 0.15 0.00 88 1011.4
20260509065004 68 72 2.0 4.0 0.00 0.15 0.00 89 1011.6
20260509064528 67 50 1.0 3.0 0.00 0.15 0.00 89 1011.8
20260509064006 67 62 0.0 4.0 0.00 0.15 0.00 89 1011.7
20260509063508 67 35 1.0 5.0 0.00 0.15 0.00 89 1011.8
20260509063025 67 346 2.0 10.0 0.00 0.15 0.00 89 1011.8
20260509062508 67 13 5.0 10.0 0.00 0.15 0.00 89 1011.8
20260509062011 67 344 5.0 10.0 0.00 0.15 0.00 89 1011.8
20260509061528 67 317 3.0 6.0 0.00 0.15 0.00 89 1011.7
20260509061006 67 334 3.0 4.0 0.00 0.15 0.00 88 1011.4
20260509060509 67 155 0.0 4.0 0.00 0.15 0.00 88 1010.8
20260509060026 67 156 2.0 4.0 0.00 0.15 0.00 87 1010.4
20260509055508 68 175 0.0 6.0 0.00 0.15 0.00 87 1010.3
20260509055009 68 148 3.0 6.0 0.00 0.15 0.00 87 1010.3
20260509054539 68 146 4.0 6.0 0.00 0.15 0.00 87 1010.3
20260509054007 68 145 2.0 5.0 0.00 0.15 0.00 87 1010.5
20260509053509 68 173 3.0 6.0 0.00 0.15 0.00 87 1010.7
20260509053101 67 167 2.0 6.0 0.00 0.15 0.00 87 1010.8
20260509052505 67 161 3.0 5.0 0.00 0.15 0.00 87 1010.8
20260509052011 67 198 3.0 5.0 0.00 0.15 0.00 87 1011.2
20260509051527 67 204 3.0 5.0 0.00 0.15 0.00 87 1011.3
20260509051007 67 198 3.0 4.0 0.00 0.15 0.00 86 1011.2
20260509050507 68 221 2.0 4.0 0.00 0.15 0.00 86 1011.4
20260509050038 68 217 2.0 4.0 0.00 0.15 0.00 86 1011.3
20260509045505 68 248 1.0 2.0 0.00 0.15 0.15 85 1011.5
20260509045003 68 288 0.0 3.0 0.00 0.15 0.15 85 1011.4
20260509044514 68 288 1.0 6.0 0.00 0.15 0.15 85 1011.5
20260509044007 68 238 2.0 6.0 0.00 0.15 0.15 84 1011.2
20260509043504 69 221 4.0 6.0 0.00 0.15 0.15 84 1010.9
20260509043005 69 222 3.0 6.0 0.00 0.15 0.15 83 1011.1
20260509042510 69 217 2.0 2.0 0.00 0.15 0.15 83 1011.2
20260509042005 69 217 0.0 5.0 0.00 0.15 0.15 82 1011.2
20260509041507 69 182 1.0 6.0 0.00 0.15 0.15 82 1011.0
20260509041006 69 194 2.0 6.0 0.00 0.15 0.15 82 1010.6
20260509040508 69 167 2.0 5.0 0.00 0.15 0.15 82 1010.6
20260509040006 69 198 2.0 5.0 0.00 0.15 0.15 82 1010.6
20260509035506 69 189 2.0 6.0 0.00 0.15 0.15 82 1010.8
20260509035008 70 178 3.0 6.0 0.00 0.15 0.15 81 1010.6
20260509034507 70 168 2.0 8.0 0.00 0.15 0.15 81 1010.7
20260509034011 70 160 3.0 9.0 0.00 0.15 0.15 81 1010.6
20260509033503 70 184 3.0 9.0 0.00 0.15 0.15 81 1010.6
20260509033008 70 186 2.0 5.0 0.00 0.15 0.15 80 1010.7
20260509032507 70 175 1.0 7.0 0.00 0.15 0.15 80 1010.7
20260509032004 70 189 2.0 9.0 0.00 0.15 0.15 80 1010.3
20260509031506 70 166 5.0 9.0 0.00 0.15 0.15 80 1010.0
20260509031007 70 189 3.0 6.0 0.00 0.15 0.15 80 1010.0
20260509030508 70 192 2.0 5.0 0.00 0.15 0.15 80 1010.4
20260509030021 70 156 2.0 3.0 0.00 0.15 0.15 80 1010.5
20260509025507 70 121 0.0 0.0 0.00 0.15 0.15 80 1010.9
20260509025007 70 93 0.0 0.0 0.00 0.15 0.15 80 1011.1
20260509024508 70 56 0.0 0.0 0.00 0.15 0.15 80 1011.4
20260509024006 70 56 0.0 0.0 0.00 0.15 0.15 79 1011.3
20260509023505 70 136 0.0 0.0 0.00 0.15 0.15 79 1011.0
20260509023016 70 142 0.0 0.0 0.00 0.15 0.15 79 1010.8
20260509022507 70 77 0.0 0.0 0.00 0.15 0.15 79 1010.8
20260509022010 70 77 0.0 0.0 0.00 0.15 0.15 79 1010.6
20260509021508 70 77 0.0 0.0 0.00 0.15 0.15 78 1010.5
20260509021007 71 77 0.0 0.0 0.00 0.15 0.15 78 1010.4
20260509020503 71 77 0.0 0.0 0.00 0.15 0.15 77 1010.2
20260509020007 71 77 0.0 1.0 0.00 0.15 0.15 77 1010.1
20260509015507 71 77 0.0 3.0 0.00 0.15 0.15 76 1010.0
20260509015004 71 115 0.0 6.0 0.00 0.15 0.15 76 1010.0
20260509014508 72 71 2.0 6.0 0.00 0.15 0.15 75 1009.7
20260509014006 72 164 3.0 5.0 0.00 0.15 0.15 75 1009.7
20260509013503 72 153 3.0 7.0 0.00 0.15 0.15 74 1009.7
20260509013007 72 148 4.0 7.0 0.00 0.15 0.15 74 1009.6
20260509012509 72 168 2.0 7.0 0.00 0.15 0.15 74 1009.6
20260509012007 73 128 3.0 7.0 0.00 0.15 0.15 74 1009.5
20260509011508 73 165 3.0 7.0 0.00 0.15 0.15 74 1009.5
20260509011010 73 169 4.0 8.0 0.00 0.15 0.15 74 1009.4
20260509010507 73 197 3.0 8.0 0.00 0.15 0.15 73 1009.4
20260509010013 73 161 4.0 9.0 0.00 0.15 0.15 73 1009.3
20260509005508 73 163 5.0 9.0 0.00 0.15 0.15 73 1009.4
20260509005006 73 174 4.0 9.0 0.00 0.15 0.15 73 1009.4
20260509004509 73 175 5.0 9.0 0.00 0.15 0.15 73 1009.5
20260509004007 73 194 5.0 9.0 0.00 0.15 0.15 72 1009.4
20260509003504 74 175 5.0 9.0 0.00 0.15 0.15 72 1009.4
20260509003042 74 151 4.0 11.0 0.00 0.15 0.15 72 1009.2
20260509002508 74 162 5.0 11.0 0.00 0.15 0.15 72 1009.1
20260509002004 74 198 5.0 13.0 0.00 0.15 0.15 72 1009.0
20260509001508 74 181 6.0 13.0 0.00 0.15 0.15 71 1009.0
20260509001007 75 165 5.0 15.0 0.00 0.15 0.15 71 1009.0
20260509000507 75 171 7.0 15.0 0.00 0.15 0.15 70 1008.9
20260509000028 75 156 6.0 12.0 0.00 0.15 0.15 70 1008.9
20260508235510 75 182 7.0 12.0 0.00 0.15 0.15 70 1008.9
20260508235008 76 205 5.0 13.0 0.00 0.15 0.15 70 1009.0
20260508234532 75 200 6.0 13.0 0.00 0.15 0.15 69 1009.0
20260508234009 76 159 7.0 12.0 0.00 0.15 0.15 69 1009.0
20260508233507 76 211 8.0 13.0 0.00 0.15 0.15 69 1009.0
20260508233028 76 183 5.0 13.0 0.00 0.15 0.15 68 1009.1
20260508232507 76 172 6.0 13.0 0.00 0.15 0.15 67 1009.0
20260508232007 77 178 6.0 11.0 0.00 0.15 0.15 67 1009.1
20260508231526 76 198 6.0 10.0 0.00 0.15 0.15 67 1009.1
20260508231009 76 178 7.0 10.0 0.00 0.15 0.15 66 1009.2
20260508230508 76 167 6.0 10.0 0.00 0.15 0.15 65 1009.2
20260508230032 77 179 5.0 10.0 0.00 0.15 0.15 65 1009.2
20260508225510 77 138 5.0 10.0 0.00 0.15 0.15 65 1009.2
20260508225004 77 155 4.0 10.0 0.00 0.15 0.15 64 1009.3
20260508224526 77 149 4.0 10.0 0.00 0.15 0.15 64 1009.2
20260508224006 77 157 6.0 11.0 0.00 0.15 0.15 63 1009.1
20260508223509 77 180 5.0 11.0 0.00 0.15 0.15 63 1009.2
20260508223026 77 157 6.0 10.0 0.00 0.15 0.15 64 1009.1
20260508222505 77 148 5.0 10.0 0.00 0.15 0.15 64 1009.2
20260508222005 78 194 5.0 10.0 0.00 0.15 0.15 63 1009.2
20260508221527 77 190 5.0 9.0 0.00 0.15 0.15 64 1009.2
20260508221008 77 202 5.0 11.0 0.00 0.15 0.15 65 1009.2
20260508220506 77 213 6.0 13.0 0.00 0.15 0.15 65 1009.2
20260508220029 77 159 6.0 13.0 0.00 0.15 0.15 64 1009.2
20260508215510 77 71 6.0 11.0 0.00 0.15 0.15 64 1009.1
20260508215007 77 165 7.0 11.0 0.00 0.15 0.15 64 1009.2
20260508214526 78 170 7.0 11.0 0.00 0.15 0.15 64 1009.2
20260508214009 78 194 4.0 11.0 0.00 0.15 0.15 65 1009.1
20260508213505 77 178 6.0 13.0 0.00 0.15 0.15 65 1009.3
20260508213032 77 183 5.0 14.0 0.00 0.15 0.15 66 1009.5
20260508212512 77 167 6.0 14.0 0.00 0.15 0.15 65 1009.6
20260508212007 77 200 5.0 12.0 0.00 0.15 0.15 63 1009.7
20260508211530 78 209 5.0 15.0 0.00 0.15 0.15 64 1009.9
20260508211006 78 158 6.0 15.0 0.00 0.15 0.15 63 1010.1
20260508210506 78 198 7.0 14.0 0.00 0.15 0.15 64 1010.2
20260508210031 78 158 9.0 12.0 0.00 0.15 0.15 62 1010.2
20260508205507 78 159 7.0 15.0 0.00 0.15 0.15 61 1010.3
20260508205005 78 196 10.0 15.0 0.00 0.15 0.15 61 1010.4
20260508204530 77 140 6.0 14.0 0.00 0.15 0.15 62 1010.6
20260508204009 77 165 7.0 16.0 0.00 0.15 0.15 62 1010.7
20260508203506 77 167 9.0 16.0 0.00 0.15 0.15 60 1010.7
20260508203031 77 156 8.0 13.0 0.00 0.15 0.15 62 1010.6
20260508202506 76 209 7.0 13.0 0.00 0.15 0.15 65 1010.8
20260508202005 76 195 8.0 13.0 0.00 0.15 0.15 62 1011.1
20260508201528 76 182 6.0 13.0 0.00 0.15 0.15 63 1011.3
20260508201018 76 169 5.0 13.0 0.00 0.15 0.15 63 1011.4
20260508200506 76 165 8.0 12.0 0.00 0.15 0.15 63 1011.4
20260508200033 75 157 7.0 11.0 0.00 0.15 0.15 62 1011.3
20260508195507 75 164 6.0 11.0 0.00 0.15 0.15 64 1011.3
20260508195002 75 166 5.0 9.0 0.00 0.15 0.15 63 1011.4
20260508194514 75 141 4.0 9.0 0.00 0.15 0.15 63 1011.6
20260508194003 75 132 5.0 9.0 0.00 0.15 0.15 63 1011.6
20260508193503 75 150 5.0 10.0 0.00 0.15 0.15 62 1011.6
20260508193012 75 157 6.0 10.0 0.00 0.15 0.15 62 1011.6
20260508192504 75 153 5.0 10.0 0.00 0.15 0.15 62 1011.5
20260508192003 75 207 7.0 10.0 0.00 0.15 0.15 62 1011.5
20260508191511 75 117 3.0 10.0 0.00 0.15 0.15 65 1011.5
20260508191002 75 152 5.0 10.0 0.00 0.15 0.15 64 1011.6
20260508190502 75 129 6.0 10.0 0.00 0.15 0.15 63 1011.6
20260508190010 74 145 5.0 10.0 0.00 0.15 0.15 65 1011.6
20260508185508 74 132 5.0 10.0 0.00 0.15 0.15 64 1011.7
20260508185003 74 157 3.0 10.0 0.00 0.15 0.15 66 1011.7
20260508184513 74 182 4.0 10.0 0.00 0.15 0.15 64 1011.9
20260508184002 74 186 3.0 10.0 0.00 0.15 0.15 66 1011.9
20260508183502 74 158 5.0 9.0 0.00 0.15 0.15 66 1012.0
20260508183014 74 187 4.0 9.0 0.00 0.15 0.15 67 1011.9
20260508182504 73 175 5.0 9.0 0.00 0.15 0.15 64 1012.1
20260508182003 73 129 5.0 9.0 0.00 0.15 0.15 67 1012.3
20260508181513 73 168 4.0 7.0 0.00 0.15 0.15 68 1012.4
20260508181003 73 129 3.0 8.0 0.00 0.15 0.15 69 1012.5
20260508180503 73 153 5.0 8.0 0.00 0.15 0.15 69 1012.6
20260508180015 73 172 4.0 8.0 0.00 0.15 0.15 68 1012.6
20260508175502 72 122 4.0 8.0 0.00 0.15 0.15 69 1012.8
20260508175007 72 119 1.0 7.0 0.00 0.15 0.15 69 1012.9
20260508174529 71 209 4.0 7.0 0.00 0.15 0.15 68 1013.1
20260508174003 71 155 3.0 10.0 0.00 0.15 0.15 71 1013.3
20260508173509 71 176 5.0 11.0 0.00 0.15 0.15 68 1013.4
20260508173014 71 157 3.0 11.0 0.00 0.15 0.15 69 1013.5
20260508172506 70 184 4.0 10.0 0.00 0.15 0.15 71 1013.6
20260508172003 70 169 5.0 10.0 0.00 0.15 0.15 72 1013.7
20260508171514 69 173 4.0 9.0 0.00 0.15 0.15 72 1013.8
20260508171002 69 173 4.0 9.0 0.00 0.15 0.15 75 1013.8
20260508170502 69 153 5.0 9.0 0.00 0.15 0.15 75 1013.9
20260508170014 69 140 3.0 8.0 0.00 0.15 0.15 76 1014.1
20260508165503 68 165 4.0 8.0 0.00 0.15 0.15 76 1014.2
20260508165002 68 160 3.0 8.0 0.00 0.15 0.15 78 1014.3
20260508164516 68 140 2.0 8.0 0.00 0.15 0.15 77 1014.5
20260508164004 68 169 3.0 7.0 0.00 0.15 0.15 80 1014.5
20260508163506 67 115 2.0 8.0 0.00 0.15 0.15 79 1014.5
20260508163031 66 173 4.0 9.0 0.00 0.15 0.15 80 1014.6
20260508162504 66 143 4.0 9.0 0.00 0.15 0.15 79 1014.6
20260508162008 66 167 4.0 8.0 0.00 0.15 0.15 80 1014.7
20260508161513 65 167 3.0 8.0 0.00 0.15 0.15 81 1014.5
20260508161003 65 192 4.0 9.0 0.00 0.15 0.15 79 1014.6
20260508160506 65 135 3.0 9.0 0.00 0.15 0.15 79 1014.9
20260508160016 65 175 5.0 9.0 0.00 0.15 0.15 79 1014.9
20260508155503 65 157 3.0 9.0 0.00 0.15 0.15 81 1014.9
20260508155007 65 216 3.0 8.0 0.00 0.15 0.15 83 1015.0
20260508154518 64 189 4.0 7.0 0.00 0.15 0.15 82 1014.8
20260508154006 64 146 4.0 8.0 0.00 0.15 0.15 82 1014.6
20260508153509 64 212 4.0 7.0 0.00 0.15 0.15 84 1014.9
20260508153025 63 178 4.0 5.0 0.00 0.15 0.15 83 1014.9
20260508152503 63 178 2.0 5.0 0.00 0.15 0.15 83 1015.0
20260508152009 63 159 2.0 8.0 0.00 0.15 0.15 83 1014.9
20260508151522 63 184 3.0 8.0 0.00 0.15 0.15 84 1015.0
20260508151003 63 190 2.0 7.0 0.00 0.15 0.15 86 1015.1
20260508150512 63 167 3.0 10.0 0.00 0.15 0.15 86 1015.0
20260508150016 63 173 4.0 10.0 0.00 0.15 0.15 86 1015.3
20260508145504 63 163 5.0 10.0 0.00 0.15 0.15 87 1015.2
20260508145007 62 181 5.0 8.0 0.00 0.15 0.15 88 1015.0
20260508144515 62 164 2.0 8.0 0.01 0.15 0.15 90 1015.0
20260508144004 62 157 5.0 8.0 0.01 0.15 0.15 89 1015.1
20260508143508 62 175 3.0 7.0 0.01 0.15 0.15 89 1014.9
20260508143014 62 150 4.0 7.0 0.01 0.15 0.15 90 1015.1
20260508142504 61 190 4.0 6.0 0.02 0.15 0.15 91 1015.1
20260508142006 61 165 1.0 4.0 0.02 0.15 0.15 91 1015.1
20260508141515 61 117 0.0 3.0 0.02 0.15 0.15 91 1015.2
20260508141003 61 148 2.0 3.0 0.02 0.15 0.15 91 1015.4
20260508140514 61 67 0.0 3.0 0.02 0.15 0.15 92 1015.5
20260508140018 61 60 2.0 3.0 0.02 0.15 0.15 92 1015.4
20260508135504 60 288 0.0 2.0 0.02 0.15 0.15 91 1015.5
20260508135013 60 288 0.0 2.0 0.02 0.15 0.15 91 1015.7
20260508134523 60 288 0.0 2.0 0.01 0.14 0.14 91 1015.6
20260508134003 60 288 1.0 3.0 0.01 0.14 0.14 91 1015.6
20260508133513 60 191 0.0 4.0 0.01 0.14 0.14 91 1015.5
20260508133017 60 133 2.0 4.0 0.02 0.14 0.14 91 1015.2
20260508132502 60 140 2.0 4.0 0.03 0.13 0.13 90 1015.0
20260508132007 60 161 1.0 3.0 0.03 0.13 0.13 90 1015.2
20260508131519 60 241 1.0 3.0 0.04 0.13 0.13 90 1015.8
20260508131004 59 194 0.0 4.0 0.04 0.13 0.13 90 1015.5
20260508130508 59 149 1.0 5.0 0.04 0.13 0.13 90 1015.2
20260508130018 59 181 3.0 5.0 0.04 0.13 0.13 90 1015.2
20260508125506 59 194 2.0 5.0 0.04 0.13 0.13 90 1015.4
20260508125011 59 192 3.0 6.0 0.04 0.13 0.13 89 1015.4
20260508124518 59 130 3.0 6.0 0.04 0.13 0.13 89 1015.1
20260508124004 59 153 2.0 3.0 0.04 0.13 0.13 89 1015.4
20260508123508 59 173 2.0 5.0 0.04 0.13 0.13 88 1015.7
20260508123016 59 173 1.0 5.0 0.03 0.12 0.12 88 1015.6
20260508122504 59 167 3.0 5.0 0.01 0.10 0.10 88 1016.2
20260508122007 59 182 3.0 4.0 0.01 0.10 0.10 89 1016.1
20260508121520 59 165 3.0 5.0 0.00 0.09 0.09 89 1015.8
20260508121003 59 201 2.0 5.0 0.00 0.09 0.09 89 1015.7
20260508120508 59 202 2.0 4.0 0.00 0.09 0.09 90 1015.8
20260508120015 59 113 1.0 7.0 0.00 0.09 0.09 90 1015.2
20260508115505 59 147 2.0 7.0 0.00 0.09 0.09 90 1016.0
20260508115008 59 192 0.0 2.0 0.00 0.09 0.09 91 1015.7
20260508114519 59 215 0.0 2.0 0.02 0.09 0.09 91 1015.6
20260508114003 59 153 0.0 2.0 0.02 0.09 0.09 90 1015.3
20260508113508 59 153 0.0 4.0 0.02 0.09 0.09 90 1015.1
20260508113017 59 199 2.0 4.0 0.03 0.09 0.09 90 1014.7
20260508112504 59 155 1.0 7.0 0.03 0.09 0.09 90 1014.8
20260508112009 59 101 1.0 8.0 0.07 0.09 0.09 90 1014.6
20260508111520 59 202 3.0 10.0 0.08 0.09 0.09 91 1015.0
20260508111011 59 169 4.0 10.0 0.09 0.09 0.09 92 1015.3
20260508110507 59 159 1.0 4.0 0.09 0.09 0.09 92 1015.0
20260508110024 58 187 1.0 2.0 0.09 0.09 0.09 92 1015.3
20260508105510 58 197 0.0 3.0 0.09 0.09 0.09 91 1015.1
20260508105003 58 77 2.0 3.0 0.09 0.09 0.09 91 1014.6
20260508104502 58 254 0.0 4.0 0.07 0.07 0.07 91 1015.1
20260508104005 58 234 2.0 4.0 0.07 0.07 0.07 91 1015.7
20260508103503 58 250 1.0 2.0 0.07 0.07 0.07 91 1015.3
20260508103017 58 170 1.0 2.0 0.06 0.06 0.06 91 1014.7
20260508102503 57 261 0.0 3.0 0.06 0.06 0.06 91 1014.5
20260508102003 58 261 0.0 3.0 0.02 0.02 0.02 90 1014.5
20260508101530 58 286 1.0 2.0 0.01 0.01 0.01 90 1014.8
20260508101004 57 310 0.0 3.0 0.00 0.00 0.00 90 1014.1
20260508100503 57 199 0.0 4.0 0.00 0.00 0.00 90 1014.5
20260508100018 57 163 3.0 4.0 0.00 0.00 0.00 89 1014.2
20260508095503 57 147 1.0 2.0 0.00 0.00 0.00 89 1014.1
20260508095003 57 311 0.0 0.0 0.00 0.00 0.00 88 1014.4
20260508094517 57 311 0.0 2.0 0.00 0.00 0.00 87 1014.6
20260508094006 58 311 1.0 2.0 0.00 0.00 0.00 86 1014.7
20260508093503 58 163 0.0 0.0 0.00 0.00 0.00 86 1014.6
20260508093037 58 163 0.0 0.0 0.00 0.00 0.00 86 1014.5
20260508092503 59 163 0.0 0.0 0.00 0.00 0.00 86 1014.5
20260508092004 59 163 0.0 0.0 0.00 0.00 0.00 85 1014.6
20260508091523 59 163 0.0 0.0 0.00 0.00 0.00 85 1014.6
20260508091009 60 163 0.0 0.0 0.00 0.00 0.00 84 1014.5
20260508090502 60 163 0.0 0.0 0.00 0.00 0.00 84 1014.7
20260508090028 60 163 0.0 0.0 0.00 0.00 0.00 83 1014.7
20260508085503 60 163 0.0 1.0 0.00 0.00 0.00 83 1014.8
20260508085003 61 163 0.0 2.0 0.00 0.00 0.00 83 1014.8
20260508084520 61 163 0.0 2.0 0.00 0.00 0.00 83 1014.9
20260508084005 61 163 0.0 2.0 0.00 0.00 0.00 82 1015.2
20260508083503 61 163 1.0 3.0 0.00 0.00 0.00 82 1015.0
20260508083024 61 175 0.0 3.0 0.00 0.00 0.00 82 1015.3
20260508082503 61 156 0.0 5.0 0.00 0.00 0.00 82 1015.3
20260508082003 61 179 3.0 5.0 0.00 0.00 0.00 82 1014.9
20260508081520 61 166 2.0 4.0 0.00 0.00 0.00 82 1015.3
20260508081002 60 167 0.0 4.0 0.00 0.00 0.00 82 1015.4
20260508080505 60 174 0.0 4.0 0.00 0.00 0.00 83 1015.1
20260508080027 60 165 2.0 4.0 0.00 0.00 0.00 83 1015.3